(376395) = 2010 WV71 = 2012 FP14

Discovered at Mount Lemmon on 2007-11-18 by Mt. Lemmon Survey.

Orbit

Orbit type: Main Belt

Note: WebGL enabled browser required.

epoch2023-09-13.0
epoch JD2460200.5
perihelion date2023-03-10.65105
perihelion JD2460014.15105
argument of perihelion (°)216.82953
ascending node (°)68.22579
inclination (°)7.41104
eccentricity0.1443958
perihelion distance (AU)1.9354084
Tisserand w.r.t. Jupiter3.6
ΔV w.r.t. Earth (km/sec)8.9
semimajor axis (AU)2.2620369
mean anomaly (°)53.98601
mean daily motion (°/day)0.28970390
aphelion distance (AU)2.589
period (years)3.4
P-vector [x]0.25510135
P-vector [y]-0.85352981
P-vector [z]-0.45432386
Q-vector [x]0.95946606
Q-vector [y]0.28166116
Q-vector [z]0.00958543
absolute magnitude17.17
phase slope0.15
uncertainty0
referenceMPEC 2024-A48
observations used403
oppositions14
arc length (days)7846
first opposition used2002
last opposition used2023
residual rms (arc-secs)0.78
perturbers coarse indicatorM-v
perturbers precise indicator003Ek
first observation date used2002-05-19.0
last observation date used2023-11-11.0
computer nameMPCLINUX
JD of orbit computation2456612.729742
perihelion JD uncertainty (days)2.8878E-04
argument of perihelion uncertainty (°)1.4587E-04
ascending node uncertainty (°)1.2066E-04
inclination uncertainty (°)1.3815E-05
eccentricity uncertainty 6.7684E-08
perihelion distance uncertainty (AU)1.5090E-07
Minimum Orbit Intersection Distances (in AU)
for orbit epoch: 2460200.5, reference: E2024-A48
Mercury1.47706
Venus1.20913
Earth0.92413
Mars0.47803
Jupiter2.53748
Saturn6.48186
Uranus16.0113
Neptune27.4198

Observations

399 total observations over interval: 2002 05 19.33283 – 2023 11 11.299780
These data are available for download (format description).

Date (UT) J2000 RA J2000 Dec Magn Location Ref
2002 05 19.33283 14 46 07.37 -11 17 58.5 19.4   644 – Palomar Mountain/NEAT MPS 423995
2002 05 19.35008 14 46 06.26 -11 17 59.6 19.4   644 – Palomar Mountain/NEAT MPS 423995
2002 05 19.37146 14 46 04.92 -11 18 01.2 19.2   644 – Palomar Mountain/NEAT MPS 423995
2005 03 16.28277 11 06 06.69 +19 12 06.7 19.6 R 703 – Catalina Sky Survey MPS 423995
2005 03 16.29128 11 06 06.07 +19 12 10.2 19.4 R 703 – Catalina Sky Survey MPS 423995
2005 03 16.29983 11 06 05.51 +19 12 10.4 19.4 R 703 – Catalina Sky Survey MPS 423995
2005 03 16.30839 11 06 04.94 +19 12 13.3 19.5 R 703 – Catalina Sky Survey MPS 423995
2006 09 19.31982 00 15 53.13 -12 44 22.5 19.3 V 703 – Catalina Sky Survey MPS 423995
2006 09 19.33303 00 15 52.27 -12 44 27.7 19.6 V 703 – Catalina Sky Survey MPS 423995
2006 09 19.34626 00 15 51.37 -12 44 29.7 19.6 V 703 – Catalina Sky Survey MPS 423995
2006 09 19.35947 00 15 50.58 -12 44 33.1 19.7 V 703 – Catalina Sky Survey MPS 423995
2007 11 18.44102 08 39 11.44 +24 06 14.1 22.1 V G96 – Mt. Lemmon Survey MPS 423995
2007 11 18.44781 08 39 11.62 +24 06 15.3 21.4 V G96 – Mt. Lemmon Survey MPS 423995
2007 11 18.45451 08 39 11.84 +24 06 16.8 22.0 V G96 – Mt. Lemmon Survey MPS 423995
2007 11 18.46125 08 39 11.91 +24 06 17.6 21.7 V G96 – Mt. Lemmon Survey MPS 423995
2008 01 16.20367 08 13 47.53 +29 12 05.0 20.4 V G96 – Mt. Lemmon Survey MPS 423995
2008 01 16.20899 08 13 47.17 +29 12 06.6 20.6 V G96 – Mt. Lemmon Survey MPS 423995
2008 01 16.21434 08 13 46.74 +29 12 08.9 20.4 V G96 – Mt. Lemmon Survey MPS 423995
2008 01 16.21960 08 13 46.41 +29 12 10.5 20.6 V G96 – Mt. Lemmon Survey MPS 423995
2010 11 30.37729 05 14 54.85 +24 28 48.1 20.0 V G96 – Mt. Lemmon Survey MPS 359384
2010 11 30.38416 05 14 54.31 +24 28 48.3 20.1 V G96 – Mt. Lemmon Survey MPS 359384
2010 11 30.39095 05 14 53.80 +24 28 49.1 19.4 V G96 – Mt. Lemmon Survey MPS 359384
2010 11 30.39779 05 14 53.34 +24 28 50.4 20.6 V G96 – Mt. Lemmon Survey MPS 359384
2010 12 09.43520 05 03 56.88 +24 42 08.4 19.9 V G96 – Mt. Lemmon Survey MPS 359384
2010 12 09.43661 05 03 56.80 +24 42 08.2 19.9 V G96 – Mt. Lemmon Survey MPS 359384
2010 12 09.43803 05 03 56.66 +24 42 08.1 19.9 V G96 – Mt. Lemmon Survey MPS 359384
2010 12 09.43941 05 03 56.59 +24 42 08.8 19.6 V G96 – Mt. Lemmon Survey MPS 359384
2012 03 02.42900 13 19 03.82 +03 33 45.7 20.7 V G96 – Mt. Lemmon Survey MPS 423995
2012 03 02.43434 13 19 03.72 +03 33 46.8 20.8 V G96 – Mt. Lemmon Survey MPS 423995
2012 03 02.43955 13 19 03.61 +03 33 48.1 20.6 V G96 – Mt. Lemmon Survey MPS 423995
2012 03 02.44483 13 19 03.39 +03 33 48.9 20.5 V G96 – Mt. Lemmon Survey MPS 423995
2012 03 18.00302 13 09 36.89 +04 57 04.0 19.5 R 461 – University of Szeged, Piszkesteto Stn. (Konkol MPS 417398
2012 03 18.01353 13 09 36.34 +04 57 07.3   461 – University of Szeged, Piszkesteto Stn. (Konkol MPS 417398
2012 03 18.02403 13 09 35.82 +04 57 11.2   461 – University of Szeged, Piszkesteto Stn. (Konkol MPS 417398
2012 03 22.42353 13 05 47.04 +05 21 56.7 19.5 V G96 – Mt. Lemmon Survey MPS 417398
2012 03 22.43169 13 05 46.57 +05 21 58.8 19.2 V G96 – Mt. Lemmon Survey MPS 417398
2012 03 22.43984 13 05 46.14 +05 22 02.0 19.6 V G96 – Mt. Lemmon Survey MPS 417398
2012 03 22.44803 13 05 45.67 +05 22 04.6 19.7 V G96 – Mt. Lemmon Survey MPS 417398
2012 03 30.33736 12 58 05.48 +06 03 41.9 19.1 V 703 – Catalina Sky Survey MPS 423995
2012 03 30.34420 12 58 04.94 +06 03 42.9 19.1 V 703 – Catalina Sky Survey MPS 423995
2012 03 30.35119 12 58 04.47 +06 03 46.1 19.7 V 703 – Catalina Sky Survey MPS 423995
2012 03 30.35812 12 58 03.93 +06 03 48.0 19.6 V 703 – Catalina Sky Survey MPS 423995
2012 04 12.24478 12 44 43.29 +06 54 12.0 20.1 V 703 – Catalina Sky Survey MPS 423995
2012 04 12.24978 12 44 42.97 +06 54 13.0 19.7 V 703 – Catalina Sky Survey MPS 423995
2012 04 12.25486 12 44 42.68 +06 54 13.8 19.9 V 703 – Catalina Sky Survey MPS 423995
2012 04 12.25990 12 44 42.32 +06 54 16.2 19.4 V 703 – Catalina Sky Survey MPS 423995
2012 04 12.34057 12 44 37.566 +06 54 29.23 20.0 w F51 – Pan-STARRS 1, Haleakala MPS 423995
2012 04 12.35450 12 44 36.682 +06 54 31.47 19.9 w F51 – Pan-STARRS 1, Haleakala MPS 423995
2012 04 12.36844 12 44 35.799 +06 54 33.82 19.8 w F51 – Pan-STARRS 1, Haleakala MPS 423995
2012 04 12.38247 12 44 34.907 +06 54 36.04 19.8 w F51 – Pan-STARRS 1, Haleakala MPS 423995
2012 04 21.42923 12 35 58.883 +07 09 55.01 20.1 w F51 – Pan-STARRS 1, Haleakala MPS 423995
2012 04 21.44364 12 35 58.091 +07 09 55.55 20.2 w F51 – Pan-STARRS 1, Haleakala MPS 423995
2012 04 21.45811 12 35 57.301 +07 09 56.09 20.1 w F51 – Pan-STARRS 1, Haleakala MPS 423995
2012 04 21.47264 12 35 56.507 +07 09 56.59 20.1 w F51 – Pan-STARRS 1, Haleakala MPS 423995
2013 10 03.43560 02 20 27.473 +04 32 00.76 20.3 w F51 – Pan-STARRS 1, Haleakala MPS 478854
2013 10 03.45072 02 20 26.664 +04 31 57.74 20.3 w F51 – Pan-STARRS 1, Haleakala MPS 478854
2013 10 03.46599 02 20 25.840 +04 31 54.67 20.3 w F51 – Pan-STARRS 1, Haleakala MPS 478854
2013 10 08.50394 02 15 49.953 +04 14 58.32 20.2 g F51 – Pan-STARRS 1, Haleakala MPS 480228
2013 10 08.51626 02 15 49.201 +04 14 56.00 20.4 g F51 – Pan-STARRS 1, Haleakala MPS 480228
2013 10 12.42409 02 11 55.05 +04 01 55.9 20.4 V 703 – Catalina Sky Survey MPS 480228
2013 10 12.42912 02 11 54.87 +04 01 54.8 21.1 V 703 – Catalina Sky Survey MPS 480228
2013 10 12.43415 02 11 54.54 +04 01 52.6 20.4 V 703 – Catalina Sky Survey MPS 480228
2013 10 12.43915 02 11 54.11 +04 01 51.3 19.1 V 703 – Catalina Sky Survey MPS 480228
2013 10 26.28044 01 56 58.20 +03 22 52.8 20.1 V 703 – Catalina Sky Survey MPS 485228
2013 10 26.28805 01 56 57.58 +03 22 51.2 20.6 V 703 – Catalina Sky Survey MPS 485228
2013 10 26.29571 01 56 57.06 +03 22 50.3 20.1 V 703 – Catalina Sky Survey MPS 485228
2013 10 26.30336 01 56 56.56 +03 22 49.9 20.3 V 703 – Catalina Sky Survey MPS 485228
2013 11 01.21001 01 50 40.61 +03 12 09.5 19.6 V 703 – Catalina Sky Survey MPS 487179
2013 11 01.22019 01 50 39.90 +03 12 07.4 20.1 V 703 – Catalina Sky Survey MPS 487179
2013 11 01.23039 01 50 39.22 +03 12 06.6 21.2 V 703 – Catalina Sky Survey MPS 487179
2013 11 01.24058 01 50 38.68 +03 12 06.3 20.5 V 703 – Catalina Sky Survey MPS 487179
2015 01 17.43616 10 03 30.23 +23 10 22.1 20.8 r G45 – Space Surveillance Telescope, Atom Site MPS 579968
2015 01 17.44034 10 03 30.06 +23 10 24.5 20.5 r G45 – Space Surveillance Telescope, Atom Site MPS 579968
2015 01 17.44694 10 03 29.71 +23 10 26.6 20.8 r G45 – Space Surveillance Telescope, Atom Site MPS 579968
2015 01 17.45112 10 03 29.53 +23 10 29.0 20.0 r G45 – Space Surveillance Telescope, Atom Site MPS 579968
2015 01 25.40812 09 57 19.20 +24 10 51.5 20.9 r G45 – Space Surveillance Telescope, Atom Site MPS 579968
2015 01 25.41483 09 57 18.83 +24 10 53.9 20.4 r G45 – Space Surveillance Telescope, Atom Site MPS 579968
2015 01 25.41891 09 57 18.65 +24 10 55.9 19.9 r G45 – Space Surveillance Telescope, Atom Site MPS 579968
2015 01 25.42305 09 57 18.40 +24 10 58.6 20.6 r G45 – Space Surveillance Telescope, Atom Site MPS 579968
2015 01 27.39940 09 55 31.63 +24 26 03.8 20.7 r G45 – Space Surveillance Telescope, Atom Site MPS 579968
2015 01 27.40355 09 55 31.40 +24 26 06.3 20.2 r G45 – Space Surveillance Telescope, Atom Site MPS 579968
2015 01 27.40611 09 55 31.30 +24 26 06.4 20.0 r G45 – Space Surveillance Telescope, Atom Site MPS 579968
2015 01 27.41433 09 55 30.82 +24 26 10.4 20.4 r G45 – Space Surveillance Telescope, Atom Site MPS 579968
2015 02 09.73190 09 41 45.36 +26 01 18.2 20.9 R D29 – Purple Mountain Observatory, XuYi Station MPS 579968
2015 02 09.74865 09 41 44.24 +26 01 23.6 20.8 R D29 – Purple Mountain Observatory, XuYi Station MPS 579968
2015 02 13.24227 09 37 50.82 +26 22 47.6 19.8 V G96 – Mt. Lemmon Survey MPS 579968
2015 02 13.24537 09 37 50.62 +26 22 48.6 19.9 V G96 – Mt. Lemmon Survey MPS 579968
2015 02 13.24846 09 37 50.40 +26 22 49.7 19.8 V G96 – Mt. Lemmon Survey MPS 579968
2015 02 13.25156 09 37 50.18 +26 22 50.6 19.8 V G96 – Mt. Lemmon Survey MPS 579968
2015 02 14.34186 09 36 36.80 +26 29 06.0 20.1 r G45 – Space Surveillance Telescope, Atom Site MPS 592107
2015 02 14.35008 09 36 36.23 +26 29 08.5 20.4 r G45 – Space Surveillance Telescope, Atom Site MPS 592107
